Simultaneous Nadir Overpasses (SNOs) Predictions

Prediction of SNOs between FY3D and NOAA-19 Satellite Orbit:

Table of predicted SNOs for the next 14.0 days since TLE Epoch: 11/9/2024
Index Date (FY3D) Time (FY3D) Lat,Lon (FY3D) SZA (FY3D ) Date (NOAA-19) Time (NOAA-19) Lat,Lon (NOAA-19) SZA (NOAA-19 ) Distance(km) Time Diff (sec)
1 11/22/2024 23:54:44 75.68,-175.16 96.10 11/22/2024 23:53:35 75.68,-177.28 96.04 58.18 69
2 11/23/2024 00:45:35 -75.98, -8.88 83.62 11/23/2024 00:44:22 -76.01, -8.84 83.61 2.85 73
3 11/23/2024 01:36:21 76.00, 158.38 96.40 11/23/2024 01:35:25 76.00, 158.36 96.40 0.45 56
4 11/23/2024 02:27:06 -76.03, -34.41 83.57 11/23/2024 02:26:19 -76.01, -34.31 83.59 3.12 47



Historial Predications of SNOs between FY3D and NOAA-19
